Вернуться в каталог

STARLINK-37675

АктивенСвязьVLEO
NORAD 100299·PAYLOAD·🇺🇸 United States

Запущен Aug 11, 2026 с Cape Canaveral Space Force Station

Loading…

Ближайшие Пролёты (ближайшие 24 часа)

TLE

УстаревшееSource: Space-Track

Эпоха: Sep 8, 2026, 15:43 UTC

1 A0299U 26183AD  26251.65520066 -.01023326  00000-0 -69549-2 0  9990
2 A0299  53.1590 315.0048 0000472  21.8641 338.2400 15.76609701  4456

Отслеживайте STARLINK-37675 в реальном времени с AllMySat

Download on the App Store